Home > Weather > Annapolis County > Past weeks

Flag for Canada Weather for the Past 2 Weeks in Annapolis County, Nova Scotia, Canada

Now
47 °F

Cool.


Feels Like: 45 °F
Forecast: 42 / 50 °F
Wind: 5 mph from Southeast

Location: Kejimkujik 1

Current Time: May 2, 2016 at 10:22:26 AM

Latest Report: May 2, 2016 at 9:00 AM


Visibility: N/A

Pressure: 30.19 "Hg

Humidity: 51%

Dew Point: 29 °F

Location of Annapolis CountyLocation

Historic Weather in Annapolis County — Graph

°F

Annapolis County Temperature Yesterday

Maximum temperature yesterday: 63 °F (at 4:00 PM)
Minimum temperature yesterday: 29 °F (at 7:00 AM)
Average temperature yesterday: 46 °F

High & Low Weather Summary for the Past Weeks

 TemperatureHumidityPressure
High75 °F (Apr 22, 3:00 PM)100% (Apr 26, 9:00 PM)30.42 "Hg (Apr 26, 9:00 PM)
Low22 °F (Apr 29, 5:00 AM)14% (Apr 30, 7:00 PM)29.67 "Hg (Apr 23, 5:00 PM)
Average43 °F58%29.98 "Hg
* Reported Apr 17 9:00 AM — May 2 9:00 AM, Annapolis County, Weather by CustomWeather, © 2016

Note: Actual official high and low records may vary slightly from our data, if they occured in-between our weather recording intervals... More about our weather records

Advertising

Annapolis County Weather History for the Previous 24 Hours

Scroll right to see more
 ConditionsComfort  
Time TempWeatherWind HumidityBarometerVisibility
9:00 AM
Mon, May 2
47 °FCool.5 mph51%30.19 "HgN/A
8:00 AM44 °FQuite cool.3 mph74%30.20 "HgN/A
7:00 AM42 °FQuite cool.1 mph77%30.21 "HgN/A
6:00 AM42 °FQuite cool.3 mph72%30.20 "HgN/A
5:00 AM41 °FQuite cool.2 mph65%30.20 "HgN/A
4:00 AM41 °FQuite cool.1 mph64%30.21 "HgN/A
3:00 AM43 °FQuite cool.1 mph59%30.21 "HgN/A
2:00 AM43 °FQuite cool.No wind59%30.21 "HgN/A
1:00 AM45 °FQuite cool.2 mph57%30.21 "HgN/A
12:00 AM46 °FCool.2 mph53%30.21 "HgN/A
11:00 PM
Sun, May 1
46 °FCool.3 mph56%30.23 "HgN/A
10:00 PM48 °FCool.2 mph47%30.23 "HgN/A
9:00 PM50 °FCool.2 mph44%30.23 "HgN/A
8:00 PM53 °FCool.6 mph41%30.22 "HgN/A
7:00 PM56 °FRefreshingly cool.5 mph40%30.22 "HgN/A
6:00 PM56 °FRefreshingly cool.9 mph31%30.21 "HgN/A
5:00 PM60 °FRefreshingly cool.9 mph26%30.21 "HgN/A
4:00 PM63 °FMild.6 mph20%30.21 "HgN/A
3:00 PM60 °FRefreshingly cool.6 mph21%30.22 "HgN/A
2:00 PM61 °FRefreshingly cool.7 mph24%30.22 "HgN/A
1:00 PM62 °FRefreshingly cool.8 mph22%30.24 "HgN/A
12:00 PM58 °FRefreshingly cool.3 mph21%30.26 "HgN/A
11:00 AM55 °FRefreshingly cool.2 mph33%30.27 "HgN/A
10:00 AM52 °FCool.1 mph39%30.28 "HgN/A
Weather by CustomWeather, © 2016

See weather overviewHow to use our weather pages